Home > Weather > Merida > Past weeks

Flag for Mexico Past Weather in Merida, Yucatán, Mexico — Yesterday and Last 2 Weeks

Now
82 °F

Partly sunny.


Feels Like: 89 °F
Forecast: N/A
Wind: 12 mph from North

Location: Aerop. Internacional Merida - Yuc

Current Time: Jun 25, 2016 at 6:12:06 PM

Latest Report: Jun 25, 2016 at 4:52 PM


Visibility: 7 mi

Pressure: 29.96 "Hg

Humidity: 79%

Dew Point: 75 °F

Location of MeridaLocation

Past Weather in Merida — Graph

°F

Merida Temperature Yesterday

Maximum temperature yesterday: 91 °F (at 12:49 PM)
Minimum temperature yesterday: 73 °F (at 12:52 AM)
Average temperature yesterday: 80 °F

High & Low Weather Summary for the Past Weeks

 TemperatureHumidityPressure
High100 °F (Jun 10, 4:43 PM)100% (Jun 10, 10:45 PM)30.09 "Hg (Jun 10, 10:45 PM)
Low73 °F (Jun 17, 3:45 AM)35% (Jun 10, 4:43 PM)29.78 "Hg (Jun 12, 3:50 AM)
Average81 °F79%29.99 "Hg
* Reported Jun 10 4:43 PM — Jun 25 4:52 PM, Merida, Weather by CustomWeather, © 2016

Note: Actual official high and low records may vary slightly from our data, if they occured in-between our weather recording intervals... More about our weather records

Advertising

Merida Weather History for the Previous 24 Hours

Scroll right to see more
 ConditionsComfort  
Time TempWeatherWind HumidityBarometerVisibility
4:52 PM
Sat, Jun 25
82 °FPartly sunny.12 mph79%29.96 "Hg7 mi
3:49 PM79 °FThunderstorms. Broken clouds.5 mph89%29.97 "Hg6 mi
3:23 PM82 °FThunderstorms. Partly sunny.9 mph79%29.98 "Hg7 mi
2:50 PM90 °FPartly sunny.7 mph59%29.95 "Hg7 mi
1:47 PM91 °FPartly sunny.5 mph59%29.97 "Hg7 mi
12:46 PM90 °FPartly sunny.9 mph59%29.99 "Hg7 mi
11:46 AM90 °FPartly sunny.6 mph67%30.00 "Hg7 mi
10:48 AM86 °FScattered clouds.13 mph75%30.01 "Hg7 mi
9:48 AM84 °FScattered clouds.8 mph79%29.97 "Hg7 mi
8:52 AM82 °FScattered clouds.7 mph79%30.01 "Hg7 mi
6:50 AM77 °FPassing clouds.3 mph94%29.99 "Hg7 mi
5:45 AM77 °FOvercast.5 mph94%29.97 "Hg7 mi
4:45 AM77 °FOvercast.3 mph94%29.97 "Hg7 mi
3:45 AM77 °FPassing clouds.3 mph89%30.02 "Hg7 mi
2:45 AM77 °FPassing clouds.5 mph94%30.00 "Hg7 mi
1:45 AM79 °FPartly cloudy.6 mph89%30.02 "Hg7 mi
12:45 AM79 °FPartly cloudy.6 mph89%30.04 "Hg7 mi
11:45 PM
Fri, Jun 24
79 °FPassing clouds.7 mph89%30.03 "Hg7 mi
10:46 PM79 °FClear.3 mph89%30.02 "Hg7 mi
9:45 PM81 °FPartly cloudy.7 mph84%30.02 "Hg7 mi
7:50 PM81 °FBroken clouds.5 mph79%29.97 "Hg7 mi
6:49 PM81 °FBroken clouds.8 mph79%29.97 "Hg7 mi
Weather by CustomWeather, © 2016

See weather overviewHow to use our weather pages